Location: Battlefield Observatory
(36.7579°N, 76.2613°W)
Time: 18:52:52
(UTC-05:00)

Hubble Space Telescope - Visible Passes

Search period start: 24 February 2018 00:00
Search period end: 06 March 2018 00:00
Orbit: 537 x 541 km, 28.5° (Epoch: 24 February)

Date Brightness Start Highest point End Pass type
(mag) Time Alt. Az. Time Alt. Az. Time Alt. Az.
24 Feb 2.2 05:03:15 25° SSW 05:03:46 26° S 05:07:13 10° ESE visible
25 Feb 2.2 04:53:32 25° S 04:53:32 25° S 04:56:52 10° SE visible
26 Feb 2.5 04:43:51 23° SSE 04:43:51 23° SSE 04:46:28 10° SE visible
27 Feb 2.8 04:34:10 19° SSE 04:34:10 19° SSE 04:36:03 10° SE visible
27 Feb 3.0 06:11:25 10° SW 06:13:19 13° SSW 06:15:13 10° S visible
28 Feb 3.2 04:24:32 15° SSE 04:24:32 15° SSE 04:25:34 10° SE visible
28 Feb 3.1 06:02:02 10° SSW 06:02:55 11° SSW 06:03:48 10° S visible
01 Mar 3.6 04:14:57 10° SE 04:14:57 10° SE 04:15:03 10° SE visible
